AXI750 KSYR-KMSP

Flight info

Callsign AXI750
Flight time 2h 15m
Altitude 43000
Route GOATR Q812 AHPAH Q140 PEPLA Q917 SSM J140 DLH COLDD BAINY4
Aircraft C750/M-SBDE3FGHRWXY/S

Departure

Time 2026-04-24 02:03
Airport Syracuse Hancock International Airport (KSYR)

Arrival

Time 2026-04-24 04:18
Airport Minneapolis–Saint Paul International Airport / Wold–Chamberlain Field (KMSP)
Time Latitude Longitude Altitude Speed Heading
2026-04-24 01:52 43.10684 -76.11754 421 ft 0 kts 271°
2026-04-24 01:59 43.10685 -76.11765 420 ft 3 kts 271°
2026-04-24 01:59 43.10684 -76.11816 420 ft 7 kts 261°
2026-04-24 02:00 43.10679 -76.11878 420 ft 8 kts 273°
2026-04-24 02:00 43.10714 -76.11956 417 ft 11 kts 296°
2026-04-24 02:00 43.10700 -76.12051 421 ft 10 kts 238°
2026-04-24 02:00 43.10675 -76.12131 421 ft 9 kts 267°
2026-04-24 02:01 43.10675 -76.12232 421 ft 12 kts 268°
2026-04-24 02:01 43.10670 -76.12355 418 ft 13 kts 266°
2026-04-24 02:01 43.10665 -76.12470 421 ft 12 kts 269°
2026-04-24 02:01 43.10702 -76.12545 415 ft 9 kts 349°
2026-04-24 02:02 43.10725 -76.12547 420 ft 0 kts 356°
2026-04-24 02:02 43.10729 -76.12548 418 ft 3 kts 355°
2026-04-24 02:02 43.10780 -76.12553 417 ft 11 kts 355°
2026-04-24 02:03 43.10832 -76.12309 421 ft 70 kts 87°
2026-04-24 02:03 43.10868 -76.11202 519 ft 139 kts 86°
2026-04-24 02:03 43.10898 -76.09862 1158 ft 146 kts 88°
2026-04-24 02:04 43.10918 -76.08454 1820 ft 153 kts 86°
2026-04-24 02:04 43.10937 -76.06943 2356 ft 169 kts 86°
2026-04-24 02:04 43.10932 -76.05204 2742 ft 195 kts 86°
2026-04-24 02:04 43.10914 -76.03223 3152 ft 220 kts 86°
2026-04-24 02:05 43.10843 -76.01076 3692 ft 227 kts 97°
2026-04-24 02:05 43.10029 -75.99185 3995 ft 250 kts 137°
2026-04-24 02:05 43.08347 -75.98142 4309 ft 281 kts 166°
2026-04-24 02:05 43.06441 -75.97527 5328 ft 282 kts 168°
2026-04-24 02:06 43.04500 -75.96898 6179 ft 293 kts 168°
2026-04-24 02:06 43.02490 -75.96206 7067 ft 300 kts 168°
2026-04-24 02:06 43.00424 -75.95681 7906 ft 304 kts 186°
2026-04-24 02:06 42.98485 -75.96519 8904 ft 285 kts 223°
2026-04-24 02:07 42.97301 -75.98484 9756 ft 261 kts 255°
2026-04-24 02:07 42.96873 -76.00845 10003 ft 256 kts 271°
2026-04-24 02:07 42.96954 -76.03195 10010 ft 248 kts 285°
2026-04-24 02:07 42.97518 -76.05392 10017 ft 245 kts 299°
2026-04-24 02:08 42.98474 -76.07302 10014 ft 243 kts 308°
2026-04-24 02:08 42.99494 -76.09143 10012 ft 244 kts 307°
2026-04-24 02:08 43.00480 -76.11005 10009 ft 236 kts 306°
2026-04-24 02:08 43.01433 -76.12813 10016 ft 245 kts 306°
2026-04-24 02:09 43.02500 -76.14817 10121 ft 275 kts 307°
2026-04-24 02:09 43.03681 -76.17037 10324 ft 298 kts 307°
2026-04-24 02:09 43.04898 -76.19332 11154 ft 297 kts 307°
2026-04-24 02:09 43.06109 -76.21616 11894 ft 301 kts 307°
2026-04-24 02:10 43.07347 -76.23949 12661 ft 304 kts 308°
2026-04-24 02:10 43.08592 -76.26300 13420 ft 306 kts 308°
2026-04-24 02:10 43.09847 -76.28671 14098 ft 310 kts 308°
2026-04-24 02:10 43.11117 -76.31073 14726 ft 313 kts 308°
2026-04-24 02:11 43.12399 -76.33501 15349 ft 316 kts 308°
2026-04-24 02:11 43.13696 -76.35957 15982 ft 320 kts 308°
2026-04-24 02:11 43.15006 -76.38441 16639 ft 324 kts 308°
2026-04-24 02:11 43.16332 -76.40955 17309 ft 327 kts 308°
2026-04-24 02:12 43.17670 -76.43498 17983 ft 331 kts 308°
2026-04-24 02:12 43.19024 -76.46072 18629 ft 335 kts 308°
2026-04-24 02:12 43.20394 -76.48679 19253 ft 338 kts 308°
2026-04-24 02:12 43.21780 -76.51317 19869 ft 342 kts 307°
2026-04-24 02:13 43.23179 -76.53984 20482 ft 347 kts 307°
2026-04-24 02:13 43.24578 -76.56650 21124 ft 351 kts 307°
2026-04-24 02:13 43.26010 -76.59386 21771 ft 354 kts 307°
2026-04-24 02:13 43.27436 -76.62171 22387 ft 359 kts 305°
2026-04-24 02:14 43.28507 -76.65303 22991 ft 367 kts 293°
2026-04-24 02:14 43.29076 -76.68763 23614 ft 377 kts 282°
2026-04-24 02:14 43.29179 -76.72400 24131 ft 383 kts 276°
2026-04-24 02:14 43.29226 -76.76071 24669 ft 386 kts 277°
2026-04-24 02:15 43.29286 -76.79770 25201 ft 389 kts 277°
2026-04-24 02:15 43.29348 -76.83494 25713 ft 392 kts 277°
2026-04-24 02:15 43.29400 -76.87211 26197 ft 395 kts 277°
2026-04-24 02:15 43.29451 -76.91013 26653 ft 400 kts 276°
2026-04-24 02:16 43.29506 -76.94841 27172 ft 403 kts 276°
2026-04-24 02:16 43.29560 -76.98703 27686 ft 406 kts 276°
2026-04-24 02:16 43.29611 -77.02592 28198 ft 409 kts 276°
2026-04-24 02:16 43.29661 -77.06511 28712 ft 412 kts 276°
2026-04-24 02:17 43.29711 -77.10450 29196 ft 415 kts 276°
2026-04-24 02:17 43.29760 -77.14424 29709 ft 417 kts 276°
2026-04-24 02:17 43.29808 -77.18421 30171 ft 421 kts 276°
2026-04-24 02:17 43.29855 -77.22455 30570 ft 424 kts 276°
2026-04-24 02:18 43.29901 -77.26517 30896 ft 428 kts 276°
2026-04-24 02:18 43.29944 -77.30603 31439 ft 427 kts 276°
2026-04-24 02:18 43.29985 -77.34679 32037 ft 425 kts 276°
2026-04-24 02:18 43.30027 -77.38739 32596 ft 425 kts 276°
2026-04-24 02:19 43.30068 -77.42793 33166 ft 424 kts 276°
2026-04-24 02:19 43.30105 -77.46844 33751 ft 424 kts 276°
2026-04-24 02:19 43.30142 -77.50882 34291 ft 423 kts 276°
2026-04-24 02:19 43.30177 -77.54907 34867 ft 420 kts 276°
2026-04-24 02:20 43.30210 -77.58901 35496 ft 417 kts 276°
2026-04-24 02:20 43.30242 -77.62863 36060 ft 414 kts 275°
2026-04-24 02:20 43.30273 -77.66817 36636 ft 412 kts 275°
2026-04-24 02:20 43.30302 -77.70686 37254 ft 409 kts 275°
2026-04-24 02:21 43.30329 -77.74586 37895 ft 406 kts 275°
2026-04-24 02:21 43.30355 -77.78447 38526 ft 403 kts 275°
2026-04-24 02:21 43.30380 -77.82284 39018 ft 401 kts 275°
2026-04-24 02:21 43.30404 -77.86128 39341 ft 403 kts 275°
2026-04-24 02:22 43.30427 -77.89985 39663 ft 405 kts 275°
2026-04-24 02:22 43.30447 -77.93868 39997 ft 407 kts 275°
2026-04-24 02:22 43.30466 -77.97763 40304 ft 409 kts 275°
2026-04-24 02:22 43.30485 -78.01699 40608 ft 412 kts 275°
2026-04-24 02:23 43.30502 -78.05590 40944 ft 414 kts 275°
2026-04-24 02:23 43.30570 -78.09538 41263 ft 413 kts 279°
2026-04-24 02:23 43.31017 -78.13429 41598 ft 411 kts 286°
2026-04-24 02:23 43.31849 -78.17171 41948 ft 409 kts 294°
2026-04-24 02:24 43.32915 -78.20804 42288 ft 410 kts 294°
2026-04-24 02:24 43.33971 -78.24446 42612 ft 412 kts 294°
2026-04-24 02:24 43.35026 -78.28118 42945 ft 413 kts 294°
2026-04-24 02:24 43.36099 -78.31817 42990 ft 421 kts 294°
2026-04-24 02:25 43.38310 -78.39440 43004 ft 437 kts 294°
2026-04-24 02:25 43.40586 -78.47351 43006 ft 452 kts 294°
2026-04-24 02:26 43.42918 -78.55465 42998 ft 462 kts 294°
2026-04-24 02:26 43.45277 -78.63710 42998 ft 464 kts 294°
2026-04-24 02:27 43.47641 -78.71986 42998 ft 465 kts 294°
2026-04-24 02:27 43.50000 -78.80272 42991 ft 464 kts 294°
2026-04-24 02:28 43.52355 -78.88563 42992 ft 465 kts 294°
2026-04-24 02:28 43.54699 -78.96843 42999 ft 467 kts 293°
2026-04-24 02:29 43.57049 -79.05189 42999 ft 467 kts 293°
2026-04-24 02:29 43.59389 -79.13520 42982 ft 466 kts 293°
2026-04-24 02:30 43.61723 -79.21858 42982 ft 466 kts 293°
2026-04-24 02:30 43.64056 -79.30224 42978 ft 466 kts 293°
2026-04-24 02:31 43.66196 -79.38688 42977 ft 467 kts 289°
2026-04-24 02:31 43.68069 -79.47308 42980 ft 469 kts 289°
2026-04-24 02:32 43.69948 -79.55890 42984 ft 469 kts 289°
2026-04-24 02:32 43.71818 -79.64537 42997 ft 469 kts 289°
2026-04-24 02:33 43.73689 -79.73180 42992 ft 469 kts 289°
2026-04-24 02:33 43.75545 -79.81821 42987 ft 468 kts 289°
2026-04-24 02:34 43.77401 -79.90467 42985 ft 469 kts 288°
2026-04-24 02:34 43.79555 -79.98971 42983 ft 466 kts 298°
2026-04-24 02:35 43.83134 -80.06342 42986 ft 464 kts 312°
2026-04-24 02:35 43.87603 -80.12817 43000 ft 465 kts 314°
2026-04-24 02:36 43.92067 -80.19306 42991 ft 464 kts 314°
2026-04-24 02:36 43.96530 -80.25776 42990 ft 464 kts 313°
2026-04-24 02:37 44.00987 -80.32271 42991 ft 464 kts 313°
2026-04-24 02:37 44.05444 -80.38770 43003 ft 464 kts 313°
2026-04-24 02:38 44.09859 -80.45231 42996 ft 464 kts 313°
2026-04-24 02:38 44.14319 -80.51763 42994 ft 464 kts 313°
2026-04-24 02:39 44.18744 -80.58272 42988 ft 466 kts 313°
2026-04-24 02:39 44.23196 -80.64826 42979 ft 465 kts 313°
2026-04-24 02:40 44.27650 -80.71403 42983 ft 466 kts 313°
2026-04-24 02:40 44.32102 -80.77991 42975 ft 466 kts 313°
2026-04-24 02:41 44.36546 -80.84582 42976 ft 466 kts 313°
2026-04-24 02:41 44.40968 -80.91157 42958 ft 466 kts 313°
2026-04-24 02:42 44.45422 -80.97796 42975 ft 467 kts 313°
2026-04-24 02:42 44.49120 -81.03318 42976 ft 467 kts 313°
2026-04-24 02:43 44.53576 -81.09990 42982 ft 468 kts 313°
2026-04-24 02:43 44.58025 -81.16662 42983 ft 467 kts 313°
2026-04-24 02:44 44.62436 -81.23300 42979 ft 468 kts 313°
2026-04-24 02:44 44.66876 -81.29993 42986 ft 467 kts 313°
2026-04-24 02:45 44.71323 -81.36706 42978 ft 469 kts 313°
2026-04-24 02:45 44.75758 -81.43417 42982 ft 469 kts 313°
2026-04-24 02:46 44.80197 -81.50150 42989 ft 469 kts 313°
2026-04-24 02:46 44.84631 -81.56892 43003 ft 469 kts 313°
2026-04-24 02:47 44.89029 -81.63595 42999 ft 468 kts 313°
2026-04-24 02:47 44.93454 -81.70356 43010 ft 469 kts 313°
2026-04-24 02:48 44.97876 -81.77129 43007 ft 469 kts 313°
2026-04-24 02:48 45.02302 -81.83925 43013 ft 469 kts 312°
2026-04-24 02:49 45.06712 -81.90713 43010 ft 469 kts 312°
2026-04-24 02:49 45.11125 -81.97522 43009 ft 470 kts 312°
2026-04-24 02:50 45.15532 -82.04338 43006 ft 469 kts 312°
2026-04-24 02:50 45.19931 -82.11158 43006 ft 469 kts 312°
2026-04-24 02:51 45.24303 -82.17954 43011 ft 469 kts 312°
2026-04-24 02:51 45.28699 -82.24805 43011 ft 469 kts 312°
2026-04-24 02:52 45.33090 -82.31664 43004 ft 470 kts 312°
2026-04-24 02:52 45.37482 -82.38543 43002 ft 469 kts 312°
2026-04-24 02:53 45.41715 -82.45618 42992 ft 469 kts 308°
2026-04-24 02:53 45.45766 -82.52931 42991 ft 469 kts 309°
2026-04-24 02:54 45.49800 -82.60171 42989 ft 469 kts 308°
2026-04-24 02:54 45.53847 -82.67492 42975 ft 470 kts 308°
2026-04-24 02:55 45.57893 -82.74805 42983 ft 469 kts 308°
2026-04-24 02:55 45.61933 -82.82142 42982 ft 469 kts 308°
2026-04-24 02:56 45.65966 -82.89475 42993 ft 469 kts 308°
2026-04-24 02:56 45.69964 -82.96774 42992 ft 470 kts 308°
2026-04-24 02:57 45.73997 -83.04142 42991 ft 470 kts 308°
2026-04-24 02:57 45.78021 -83.11525 42994 ft 469 kts 308°
2026-04-24 02:58 45.82041 -83.18913 42995 ft 469 kts 308°
2026-04-24 02:58 45.86055 -83.26311 42992 ft 469 kts 308°
2026-04-24 02:59 45.90060 -83.33716 42996 ft 471 kts 308°
2026-04-24 02:59 45.94048 -83.41105 42985 ft 470 kts 308°
2026-04-24 03:00 45.98052 -83.48544 42952 ft 470 kts 308°
2026-04-24 03:00 46.02061 -83.56013 42943 ft 471 kts 308°
2026-04-24 03:01 46.06074 -83.63510 42952 ft 474 kts 307°
2026-04-24 03:01 46.10097 -83.71044 42940 ft 474 kts 307°
2026-04-24 03:02 46.14091 -83.78545 42944 ft 474 kts 307°
2026-04-24 03:02 46.18104 -83.86103 42940 ft 474 kts 307°
2026-04-24 03:03 46.22114 -83.93674 42959 ft 475 kts 307°
2026-04-24 03:03 46.26123 -84.01264 42941 ft 473 kts 307°
2026-04-24 03:04 46.30120 -84.08853 42936 ft 474 kts 307°
2026-04-24 03:04 46.33952 -84.16635 42936 ft 474 kts 305°
2026-04-24 03:05 46.37772 -84.24426 42915 ft 474 kts 305°
2026-04-24 03:05 46.40806 -84.32826 42927 ft 475 kts 290°
2026-04-24 03:06 46.42113 -84.42209 42918 ft 479 kts 277°
2026-04-24 03:06 46.42908 -84.51822 42919 ft 479 kts 278°
2026-04-24 03:07 46.43699 -84.61422 42925 ft 479 kts 277°
2026-04-24 03:07 46.44473 -84.70974 42924 ft 479 kts 278°
2026-04-24 03:08 46.45632 -84.85416 42926 ft 481 kts 277°
2026-04-24 03:09 46.46396 -84.95063 42932 ft 481 kts 277°
2026-04-24 03:09 46.47150 -85.04703 42922 ft 481 kts 277°
2026-04-24 03:10 46.47898 -85.14363 42920 ft 481 kts 277°
2026-04-24 03:10 46.48636 -85.24002 42902 ft 483 kts 277°
2026-04-24 03:11 46.49370 -85.33705 42896 ft 483 kts 277°
2026-04-24 03:11 46.50095 -85.43396 42894 ft 483 kts 277°
2026-04-24 03:12 46.50813 -85.53106 42884 ft 483 kts 277°
2026-04-24 03:12 46.51518 -85.62744 42881 ft 483 kts 276°
2026-04-24 03:13 46.52220 -85.72463 42871 ft 483 kts 276°
2026-04-24 03:13 46.52913 -85.82176 42874 ft 483 kts 276°
2026-04-24 03:14 46.53600 -85.91898 42870 ft 483 kts 276°
2026-04-24 03:14 46.54269 -86.01552 42860 ft 483 kts 276°
2026-04-24 03:15 46.54940 -86.11283 42860 ft 483 kts 276°
2026-04-24 03:15 46.55600 -86.21013 42846 ft 483 kts 276°
2026-04-24 03:16 46.56252 -86.30732 42834 ft 483 kts 276°
2026-04-24 03:16 46.56895 -86.40458 42829 ft 484 kts 275°
2026-04-24 03:17 46.57532 -86.50196 42815 ft 484 kts 275°
2026-04-24 03:17 46.58155 -86.59878 42815 ft 484 kts 275°
2026-04-24 03:18 46.58775 -86.69624 42806 ft 484 kts 275°
2026-04-24 03:18 46.59387 -86.79377 42801 ft 483 kts 275°
2026-04-24 03:19 46.59985 -86.89047 42798 ft 480 kts 275°
2026-04-24 03:19 46.60576 -86.98724 42800 ft 480 kts 275°
2026-04-24 03:20 46.61154 -87.08342 42801 ft 480 kts 275°
2026-04-24 03:20 46.61729 -87.18031 42803 ft 480 kts 274°
2026-04-24 03:21 46.62294 -87.27705 42798 ft 479 kts 274°
2026-04-24 03:21 46.62851 -87.37371 42797 ft 479 kts 274°
2026-04-24 03:22 46.63396 -87.46975 42788 ft 479 kts 274°
2026-04-24 03:22 46.63938 -87.56663 42786 ft 479 kts 274°
2026-04-24 03:23 46.64471 -87.66361 42777 ft 481 kts 274°
2026-04-24 03:23 46.64998 -87.76043 42760 ft 481 kts 274°
2026-04-24 03:24 46.65513 -87.85755 42763 ft 481 kts 274°
2026-04-24 03:24 46.66024 -87.95467 42750 ft 481 kts 274°
2026-04-24 03:25 46.66526 -88.05208 42748 ft 479 kts 273°
2026-04-24 03:25 46.66926 -88.14861 42722 ft 477 kts 271°
2026-04-24 03:26 46.67232 -88.24531 42692 ft 480 kts 272°
2026-04-24 03:26 46.67600 -88.34152 42699 ft 477 kts 271°
2026-04-24 03:27 46.67910 -88.43863 42680 ft 486 kts 272°
2026-04-24 03:27 46.68253 -88.53737 42676 ft 488 kts 271°
2026-04-24 03:28 46.68566 -88.63640 42671 ft 489 kts 271°
2026-04-24 03:28 46.68884 -88.73549 42665 ft 489 kts 271°
2026-04-24 03:29 46.69184 -88.83420 42666 ft 493 kts 271°
2026-04-24 03:29 46.69484 -88.93385 42679 ft 492 kts 271°
2026-04-24 03:30 46.69772 -89.03359 42674 ft 492 kts 271°
2026-04-24 03:30 46.70007 -89.11651 42675 ft 492 kts 271°
2026-04-24 03:31 46.70281 -89.21641 42672 ft 495 kts 271°
2026-04-24 03:31 46.70547 -89.31686 42672 ft 496 kts 271°
2026-04-24 03:32 46.70805 -89.41720 42668 ft 495 kts 271°
2026-04-24 03:32 46.71053 -89.51755 42667 ft 496 kts 271°
2026-04-24 03:33 46.71292 -89.61721 42669 ft 496 kts 271°
2026-04-24 03:33 46.72150 -89.71710 42645 ft 497 kts 276°
2026-04-24 03:34 46.71947 -89.81698 42648 ft 493 kts 258°
2026-04-24 03:34 46.69777 -89.91142 42656 ft 492 kts 245°
2026-04-24 03:35 46.66787 -90.00105 42687 ft 493 kts 243°
2026-04-24 03:35 46.63647 -90.08953 42678 ft 491 kts 242°
2026-04-24 03:36 46.60493 -90.17771 42665 ft 491 kts 242°
2026-04-24 03:36 46.57514 -90.26656 42654 ft 491 kts 249°
2026-04-24 03:37 46.55628 -90.36186 42667 ft 489 kts 256°
2026-04-24 03:37 46.54153 -90.45854 42662 ft 488 kts 257°
2026-04-24 03:38 46.52791 -90.55463 42634 ft 488 kts 257°
2026-04-24 03:38 46.51446 -90.65153 42628 ft 489 kts 257°
2026-04-24 03:39 46.50115 -90.74836 42620 ft 489 kts 257°
2026-04-24 03:39 46.48797 -90.84509 42621 ft 489 kts 257°
2026-04-24 03:40 46.47514 -90.94154 42633 ft 490 kts 258°
2026-04-24 03:40 46.46242 -91.03863 42602 ft 489 kts 258°
2026-04-24 03:41 46.44982 -91.13566 42600 ft 489 kts 258°
2026-04-24 03:41 46.43733 -91.23281 42608 ft 490 kts 258°
2026-04-24 03:42 46.42523 -91.32986 42600 ft 489 kts 258°
2026-04-24 03:42 46.41346 -91.42632 42600 ft 489 kts 258°
2026-04-24 03:43 46.40174 -91.52342 42611 ft 489 kts 258°
2026-04-24 03:43 46.39012 -91.62054 42614 ft 490 kts 258°
2026-04-24 03:44 46.37887 -91.71798 42614 ft 491 kts 258°
2026-04-24 03:44 46.36796 -91.81558 42613 ft 490 kts 258°
2026-04-24 03:45 46.36261 -91.91419 42580 ft 495 kts 270°
2026-04-24 03:45 46.37187 -92.01353 42614 ft 499 kts 277°
2026-04-24 03:46 46.38538 -92.11290 42589 ft 503 kts 278°
2026-04-24 03:46 46.39981 -92.21157 42595 ft 504 kts 279°
2026-04-24 03:47 46.41461 -92.31080 42605 ft 504 kts 279°
2026-04-24 03:47 46.42956 -92.41018 42613 ft 504 kts 279°
2026-04-24 03:48 46.44409 -92.50976 42589 ft 503 kts 275°
2026-04-24 03:48 46.44373 -92.60983 42609 ft 494 kts 258°
2026-04-24 03:49 46.42801 -92.70501 41879 ft 471 kts 250°
2026-04-24 03:49 46.41894 -92.75000 41195 ft 458 kts 249°
2026-04-24 03:49 46.40951 -92.79331 40236 ft 445 kts 244°
2026-04-24 03:49 46.39630 -92.83285 39113 ft 435 kts 233°
2026-04-24 03:50 46.37901 -92.86801 37930 ft 420 kts 223°
2026-04-24 03:50 46.35858 -92.89694 36861 ft 402 kts 215°
2026-04-24 03:50 46.33696 -92.92168 35859 ft 390 kts 212°
2026-04-24 03:50 46.31559 -92.94518 34867 ft 384 kts 212°
2026-04-24 03:51 46.29475 -92.96961 33864 ft 389 kts 215°
2026-04-24 03:51 46.27521 -92.99732 32828 ft 397 kts 220°
2026-04-24 03:51 46.25643 -93.02724 31783 ft 404 kts 221°
2026-04-24 03:51 46.23695 -93.05663 30721 ft 407 kts 219°
2026-04-24 03:52 46.21635 -93.08514 29657 ft 411 kts 218°
2026-04-24 03:52 46.19598 -93.11377 28566 ft 405 kts 220°
2026-04-24 03:52 46.17647 -93.14259 27535 ft 398 kts 221°
2026-04-24 03:52 46.15727 -93.17079 26530 ft 391 kts 220°
2026-04-24 03:53 46.13834 -93.19779 25640 ft 382 kts 219°
2026-04-24 03:53 46.11981 -93.22422 25125 ft 367 kts 220°
2026-04-24 03:53 46.10156 -93.25046 24899 ft 371 kts 220°
2026-04-24 03:53 46.08330 -93.27679 24676 ft 372 kts 220°
2026-04-24 03:54 46.06488 -93.30322 24450 ft 372 kts 220°
2026-04-24 03:54 46.04650 -93.32954 24223 ft 372 kts 220°
2026-04-24 03:54 46.02817 -93.35578 24006 ft 370 kts 220°
2026-04-24 03:54 46.00943 -93.38017 23773 ft 359 kts 217°
2026-04-24 03:55 45.99139 -93.40267 23640 ft 326 kts 217°
2026-04-24 03:55 45.97494 -93.42328 23633 ft 307 kts 217°
2026-04-24 03:55 45.95870 -93.44358 23630 ft 308 kts 217°
2026-04-24 03:55 45.94249 -93.46389 23628 ft 309 kts 217°
2026-04-24 03:56 45.92627 -93.48423 23632 ft 309 kts 217°
2026-04-24 03:56 45.91002 -93.50457 23626 ft 309 kts 217°
2026-04-24 03:56 45.89398 -93.52462 23625 ft 309 kts 217°
2026-04-24 03:56 45.87776 -93.54488 23623 ft 309 kts 217°
2026-04-24 03:57 45.86153 -93.56515 23617 ft 309 kts 217°
2026-04-24 03:57 45.84529 -93.58540 23612 ft 309 kts 217°
2026-04-24 03:57 45.82904 -93.60565 23608 ft 309 kts 217°
2026-04-24 03:57 45.81282 -93.62585 23609 ft 309 kts 217°
2026-04-24 03:58 45.79655 -93.64605 23605 ft 308 kts 216°
2026-04-24 03:58 45.77889 -93.66301 23595 ft 305 kts 206°
2026-04-24 03:58 45.75915 -93.67402 23593 ft 304 kts 195°
2026-04-24 03:58 45.73824 -93.67878 23589 ft 306 kts 186°
2026-04-24 03:59 45.71712 -93.67708 23586 ft 310 kts 175°
2026-04-24 03:59 45.69620 -93.66877 23621 ft 315 kts 166°
2026-04-24 03:59 45.67569 -93.65763 23636 ft 315 kts 165°
2026-04-24 03:59 45.65517 -93.64670 23641 ft 315 kts 166°
2026-04-24 04:00 45.63464 -93.63581 23643 ft 315 kts 166°
2026-04-24 04:00 45.61414 -93.62484 23645 ft 315 kts 166°
2026-04-24 04:00 45.59363 -93.61388 23643 ft 315 kts 166°
2026-04-24 04:00 45.57250 -93.60267 23428 ft 337 kts 165°
2026-04-24 04:01 45.55054 -93.59073 22960 ft 339 kts 165°
2026-04-24 04:01 45.52847 -93.57851 22500 ft 341 kts 165°
2026-04-24 04:01 45.50623 -93.56643 22048 ft 343 kts 165°
2026-04-24 04:01 45.48388 -93.55441 21610 ft 344 kts 165°
2026-04-24 04:02 45.46147 -93.54228 21148 ft 344 kts 164°
2026-04-24 04:02 45.43913 -93.53015 20690 ft 344 kts 164°
2026-04-24 04:02 45.41703 -93.51820 20239 ft 344 kts 164°
2026-04-24 04:02 45.39462 -93.50610 19781 ft 344 kts 164°
2026-04-24 04:03 45.37219 -93.49399 19323 ft 345 kts 164°
2026-04-24 04:03 45.34973 -93.48187 18864 ft 345 kts 164°
2026-04-24 04:03 45.32726 -93.46981 18398 ft 345 kts 164°
2026-04-24 04:03 45.30468 -93.45780 17948 ft 347 kts 164°
2026-04-24 04:04 45.28211 -93.44578 17458 ft 345 kts 164°
2026-04-24 04:04 45.25962 -93.43377 17008 ft 345 kts 163°
2026-04-24 04:04 45.23715 -93.42180 16558 ft 344 kts 163°
2026-04-24 04:04 45.21474 -93.40988 16101 ft 342 kts 163°
2026-04-24 04:05 45.19309 -93.39831 15671 ft 322 kts 163°
2026-04-24 04:05 45.17131 -93.38797 15241 ft 346 kts 167°
2026-04-24 04:05 45.14799 -93.37859 14853 ft 353 kts 167°
2026-04-24 04:05 45.12428 -93.36835 14464 ft 357 kts 166°
2026-04-24 04:06 45.10059 -93.35730 14079 ft 360 kts 165°
2026-04-24 04:06 45.07673 -93.34642 13699 ft 359 kts 166°
2026-04-24 04:06 45.05298 -93.33603 13314 ft 358 kts 166°
2026-04-24 04:06 45.02915 -93.32559 12898 ft 359 kts 165°
2026-04-24 04:07 45.00555 -93.31501 12494 ft 355 kts 166°
2026-04-24 04:07 44.98287 -93.30478 12088 ft 328 kts 166°
2026-04-24 04:07 44.96182 -93.29543 11674 ft 307 kts 166°
2026-04-24 04:07 44.94187 -93.28666 11247 ft 295 kts 167°
2026-04-24 04:08 44.92254 -93.27815 10829 ft 291 kts 166°
2026-04-24 04:08 44.90316 -93.26956 10415 ft 290 kts 166°
2026-04-24 04:08 44.88417 -93.26112 10022 ft 289 kts 166°
2026-04-24 04:08 44.86506 -93.25264 9710 ft 284 kts 167°
2026-04-24 04:09 44.84618 -93.24431 9352 ft 282 kts 166°
2026-04-24 04:09 44.82753 -93.23607 8534 ft 283 kts 166°
2026-04-24 04:09 44.80853 -93.22771 7869 ft 279 kts 165°
2026-04-24 04:09 44.79034 -93.21964 7270 ft 272 kts 166°
2026-04-24 04:10 44.77232 -93.21169 6673 ft 270 kts 165°
2026-04-24 04:10 44.75577 -93.19961 6005 ft 272 kts 141°
2026-04-24 04:10 44.74450 -93.17912 5359 ft 258 kts 122°
2026-04-24 04:11 44.72673 -93.13660 4179 ft 248 kts 119°
2026-04-24 04:11 44.71791 -93.11610 3646 ft 246 kts 119°
2026-04-24 04:11 44.70907 -93.09561 3632 ft 247 kts 119°
2026-04-24 04:11 44.70177 -93.07396 3556 ft 243 kts 97°
2026-04-24 04:12 44.70425 -93.05174 3536 ft 226 kts 55°
2026-04-24 04:12 44.71539 -93.03624 3623 ft 225 kts 31°
2026-04-24 04:12 44.72817 -93.02340 3645 ft 226 kts 30°
2026-04-24 04:12 44.74093 -93.01063 3632 ft 218 kts 30°
2026-04-24 04:13 44.75242 -92.99892 3621 ft 191 kts 30°
2026-04-24 04:13 44.76409 -92.99329 3432 ft 173 kts 349°
2026-04-24 04:13 44.77460 -92.99907 3447 ft 157 kts 328°
2026-04-24 04:13 44.78424 -93.00677 3574 ft 160 kts 320°
2026-04-24 04:14 44.79254 -93.01720 3635 ft 161 kts 312°
2026-04-24 04:14 44.79900 -93.02998 3589 ft 161 kts 302°
2026-04-24 04:14 44.80509 -93.04337 3378 ft 161 kts 301°
2026-04-24 04:14 44.81088 -93.05668 3160 ft 156 kts 303°
2026-04-24 04:15 44.81638 -93.06942 2958 ft 150 kts 304°
2026-04-24 04:15 44.82169 -93.08170 2766 ft 145 kts 304°
2026-04-24 04:15 44.82687 -93.09368 2572 ft 145 kts 304°
2026-04-24 04:15 44.83208 -93.10560 2372 ft 140 kts 304°
2026-04-24 04:16 44.83683 -93.11664 2184 ft 117 kts 304°
2026-04-24 04:16 44.84089 -93.12587 2039 ft 108 kts 304°
2026-04-24 04:16 44.84481 -93.13495 1911 ft 109 kts 304°
2026-04-24 04:16 44.84885 -93.14418 1811 ft 111 kts 303°
2026-04-24 04:17 44.85296 -93.15347 1706 ft 114 kts 304°
2026-04-24 04:17 44.85721 -93.16324 1474 ft 119 kts 301°
2026-04-24 04:17 44.86152 -93.17312 1338 ft 123 kts 301°
2026-04-24 04:17 44.86606 -93.18386 1172 ft 132 kts 300°
2026-04-24 04:18 44.87069 -93.19477 988 ft 125 kts 302°
2026-04-24 04:18 44.87510 -93.20487 834 ft 113 kts 302°
2026-04-24 04:18 44.87863 -93.21297 821 ft 73 kts 302°
2026-04-24 04:18 44.88039 -93.21704 820 ft 36 kts 301°
2026-04-24 04:19 44.88149 -93.21962 822 ft 21 kts 300°
2026-04-24 04:19 44.88165 -93.22062 823 ft 15 kts 253°
2026-04-24 04:19 44.88092 -93.22126 822 ft 9 kts 127°
2026-04-24 04:19 44.88054 -93.22034 822 ft 13 kts 122°
2026-04-24 04:20 44.87996 -93.21908 821 ft 17 kts 122°
2026-04-24 04:20 44.87943 -93.21785 821 ft 13 kts 121°
2026-04-24 04:20 44.87898 -93.21681 821 ft 12 kts 122°
2026-04-24 04:20 44.87860 -93.21606 821 ft 6 kts 154°
2026-04-24 04:21 44.87823 -93.21623 821 ft 8 kts 223°
2026-04-24 04:21 44.87791 -93.21688 821 ft 7 kts 272°
2026-04-24 04:21 44.87800 -93.21751 821 ft 6 kts 270°
2026-04-24 04:21 44.87784 -93.21778 821 ft 5 kts 186°
2026-04-24 04:22 44.87756 -93.21779 822 ft 4 kts 180°
2026-04-24 04:22 44.87738 -93.21774 822 ft 1 kts 131°
2026-04-24 04:22 44.87736 -93.21754 822 ft 0 kts 91°